Regional Weather Roundup
Issued by NWS Green Bay, WI

Home | Current Version | Previous Version | Graphics & Text | Print | Product List | Glossary Off
Versions: 1 2 3 4 5 6 7 8 9 10 11 12 13 14 15 16 17 18 19 20 21 22 23 24 25 26 27 28 29 30 31 32 33 34 35 36 37 38 39 40 41 42 43 44 45 46 47 48 49 50

000
ASUS43 KGRB 241900
RWRGRB

NORTH-CENTRAL AND NORTHEAST WISCONSIN REGIONAL WEATHER ROUNDUP
NATIONAL WEATHER SERVICE GREEN BAY WI
200 PM CDT SUN MAY 24 2015

WIZ005-009-010>012-018-019-242000-
NORTH CENTRAL WISCONSIN

CITY           SKY/WX    TMP DP  RH WIND       PRES   REMARKS
IRONWOOD       CLOUDY    73  46  38 SW3       30.01F
MANITOWISH WTR NOT AVBL
ARBOR VITAE    NOT AVBL
EAGLE RIVER    NOT AVBL
LAND O LAKES   NOT AVBL
RHINELANDER    CLOUDY    73  45  36 S15       30.08F
PHILLIPS       NOT AVBL
ANTIGO         NOT AVBL
TOMAHAWK       NOT AVBL
MERRILL        NOT AVBL
$$

WIZ013-073-242000-
NORTHEAST WISCONSIN

CITY           SKY/WX    TMP DP  RH WIND       PRES   REMARKS
IRON MOUNTAIN  CLOUDY    77  46  33 S8        30.05F
MARINETTE      CLOUDY    70  52  52 SW15G23   30.09F
$$

WIZ017-030-035>037-045-242000-
CENTRAL WISCONSIN

CITY           SKY/WX    TMP DP  RH WIND       PRES   REMARKS
MEDFORD        NOT AVBL
WAUSAU         LGT RAIN  62  55  77 S8        30.08F
MOSINEE        DRIZZLE   61  57  88 SE9       30.11F
MARSHFIELD     RAIN      60  54  80 SE12      30.08F
WISC RAPIDS    LGT RAIN  59  55  87 SE9       30.09F
STEVENS POINT  NOT AVBL
WAUPACA        NOT AVBL
SHAWANO        NOT AVBL
CLINTONVILLE   NOT AVBL
$$

WIZ038-039-048-051-242000-
FOX VALLEY

CITY           SKY/WX    TMP DP  RH WIND       PRES   REMARKS
NWS GREEN BAY  LGT RAIN  63  57  81 S12       30.14F
APPLETON       DRIZZLE   61  54  77 SE6       30.13F
OSHKOSH        LGT RAIN  61  56  83 SE6       30.12F
FOND DU LAC    LGT RAIN  62  56  80 SE5       30.12F
$$

WIZ022-050-052-242000-
EAST CENTRAL WISCONSIN

CITY           SKY/WX    TMP DP  RH WIND       PRES   REMARKS
STURGEON BAY   CLOUDY    66  50  55 SW7       30.15F
MANITOWOC      NOT AVBL
SHEBOYGAN      LGT RAIN  63  56  78 S5        30.13F
$$

LMZ563-521-522-541>543-242000-
LAKESHORE

STATION/POSITION TIME  TEMP    WIND        PRES    VSBY  WAVE
                       AIR SEA DIR/SP/G                  HT/PER
                 (UTC) (F)     (DEG/KT/KT) (MB)    (MI)  (FT/S)
SHEBOYGAN LKSHOR 1800   57     150/  7/  7 1021.7F
KEWAUNEE LKSHORE 1800   62     200/ 15/ 21 1020.3R
NORTHPORT PIER   1800   54     160/  9/ 15 1020.0F
N MID LAKE BUOY  1750   42 36  190/ 10/ 12 1021.1F         0
SISTER BAY LKSHO 1832   66     160/  8/ 10   N/A
CHAMBERS ISLAND  1800   72     170/  3/  7 1019.6F
MENOMINEE LKSHOR 1800   64     160/ 11/ 13 1020.2F
$$


USA.gov is the U.S. government's official web portal to all federal, state and local government web resources and services.